sat.trackr.live / text

‹ back to catalog

UK-DMC 2

NORAD 35683 · 2009-041C

PAYLOAD ACTIVE UNKNOWN

§ Identity

Operator
Country
UK
Launch date
2009-07-29
Launch site
TYMSC
Launch vehicle
Mass (kg)
RCS (m²)
0.41

Purposes: earth_obs

External: N2YO · Heavens-Above · Gunter

§ Orbital elements

Epoch: 2026-09-20T04:41:41.447904Z

Period
97.55 min
Inclination
97.8971°
Eccentricity
0.0001141
Mean motion
14.76144918 rev/d
Perigee alt
640.7 km
Apogee alt
642.3 km
Semi-major
7,019.7 km
B*
2.8884e-5
RAAN
35.9177°
Arg perigee
71.3901°
Mean anomaly
288.7432°
Rev number
92,058

§ Raw data

UK-DMC 21 35683U 09041C   26263.19561861  .00000150  00000+0  28884-4 0  99942 35683  97.8971  35.9177 0001141  71.3901 288.7432 14.76144918920581

JSON: /api/v1/satellites/35683 · /tle

For live sub-satellite position, see the globe view (requires WebGL).

§ Visibility from observer

Set your observer location to see the next 7 days of passes ≥ 10°. The values pass through the URL so the page stays shareable.

No JS? Fill the form by hand. The geolocation button needs JavaScript.

§ Radio — SatNOGS DB

ModeDescriptionDownlinkUplink
BPSK Telemetry 2.233 GHz

1 transmitter · refreshed weekly from db.satnogs.org